Погода в Бойце Кузнецове

Россия / Приморский край     42°57′09″N   133°04′03″E
темп.,
°C
ветер,
м/с
пор.,
м/с
влажн.,
%
обл.,
%
осадки,
мм/ч
давл.,
гПа
погр.,
м
24 июля, сб
сб2401:00+22ссз0196100 0.9 101011
04:00+22ссв019672 1.3 101011
07:00+22ссз1196100 0.0 101121
10:00+29юз016355 0.0 1010473
13:00+33ююз324557 0.0 10091479
16:00+31юз454863 0.0 1009725
19:00+27ююз34675 0.0 1009431
22:00+21зюз11960 0.0 101012
25 июля, вс
вс2501:00+21зюз11965 0.0 101111
04:00+20ссз009795 0.0 101011
07:00+21с11945 0.0 101136
10:00+28ююз235915 0.0 1010690
13:00+30ююз4449100 0.0 10091111
16:00+30ююз3350100 0.0 1008994
19:00+26ююз347289 0.0 1008469
22:00+21юз119821 0.0 101014
26 июля, пн
пн2601:00+21ююз019926 0.0 100914
04:00+20вюв019943 0.0 100912
07:00+21ссв009877 0.0 100878
10:00+27ююз127250 0.0 1008645
13:00+30ююз43525 0.0 10071256
16:00+30ююз33545 0.0 10061120
19:00+26юз3374100 0.0 1006456
22:00+21зюз11985 0.0 100713
27 июля, вт
вт2701:00+20ссз1198100 0.0 100611
04:00+20с1197100 0.0 100512
07:00+21с119487 0.0 100625
10:00+29сз1257100 0.0 1005596
13:00+35зсз1236100 0.0 10021351
16:00+33ююз3543100 0.0 10011332
19:00+27ю236534 0.0 1001236
22:00+21зсз119442 0.0 100211
28 июля, ср
ср2801:00+22ссв118818 0.0 100211
04:00+22ссв22855 0.0 100139
07:00+23св128217 0.0 100247
10:00+32ссв01503 0.0 1001514
13:00+36ююз33383 0.0 10001838
16:00+31ююз445436 0.0 1001795
19:00+28юз22654 0.0 1001359
22:00+22ююз11887 0.0 100211